SL-16 DEB, 22392

Orbit data source: Space-Track

SL-16 DEB, 22392 is space debris in LEO originally from a launch on Fri, 25 Dec 1992 UTC launched from the Tyuratam Missile And Space Complex (TTMTR). Debris objects in space refer to the collection of defunct objects orbiting the Earth. Examples of debris include non-operational satellites, rocket bodies, and fragments generated from explosions, collisions, or faulty payload assembly.

Loading next visibility...
Identifier
22392, 1992-093CH
Orbit
LEO
Country
Flag of CISCIS
Related business
Manufacturer
Unknown
Mission
Spacecraft
Bus & Motor
Unknown
Mass
Unknown
Launch date (UTC)
1992-12-25 (33 years ago)
Launch vehicle
Unknown
Launch site
Tyuratam Missile And Space Complex (TTMTR)
Object type
Payload
Rocket body
Debris
Shape & HBR
Unknown shape, 0.2 m
Radar Cross Section
Small (<0.1 m²)

Expand to show TLE details & history
Last TLE update: 1 day ago

TLE from 1 day ago
0 SL-16 DEB
1 22392U 92093CH  25305.33190855  .00008516  00000-0  90644-3 0  9996
2 22392  70.8847 260.4055 0078612   3.4431 112.7836 14.86921125729886
Epoch: 2025-11-01T07:57Z
TLE epoch observation values (Epoch: 2025-11-01T07:57:56.898Z)
Latitude
57.41016°
Longitude
-112.57491°
Altitude
638.299 km
Speed
7.533 km/s
True Right ascension
03h 11m 06s
True Declination
57° 15' 04"
Sunlit
Object was in full shadow at epoch
Visualization orbit readout
Latitude
Unknown
Longitude
Unknown
Altitude
Unknown
Speed
Unknown
Apparent Right ascension
Unknown
Apparent Declination
Unknown
Sunlit
N/A
Visualization observer readout
Local Sidereal Time
12:18:15
Azimuth
Unknown
Elevation
Unknown
Doppler factor
Unknown
Orbital elements
Apogee altitude
660.328 km
Perigee altitude
550.53 km
Semi-major axis
6,983.566 km
Eccentricity
0.00786
Inclination
70.8847°
RAAN
260.4055°
Arg. of periapsis
3.4431°
True anomaly
113.61096°
Mean anomaly
112.7836°
Eccentric anomaly
113.1976°
Mean motion
3.71901 °/min
Orbital period
96.8 mins
BSTAR
0.00090644
Loading maneuver chart data...
Computing Atmospheric mass density...
Loading historical data...
Loading historical data...
Loading historical data...
Loading historical data...
Loading historical data...
Loading historical data...
Loading historical data...

Documentation

Showing up to 5 results
|